Regional Weather Roundup
Issued by NWS

Home | Current Version | Previous Version | Text Only | Print | Product List | Glossary On
Versions: 1 2 3 4 5 6 7 8 9 10 11 12 13 14 15 16 17 18 19 20 21 22 23 24 25 26 27 28 29 30 31 32 33 34 35 36 37 38 39 40 41 42 43 44 45 46 47 48 49 50
000
ASUS44 KJAN 020610
RWRMS

MISSISSIPPI HOURLY WEATHER ROUNDUP
NATIONAL WEATHER SERVICE JACKSON MS
100 AM CDT TUE SEP 02 2014

NOTE: "FAIR: INDICATES FEW OR NO CLOUDS BELOW 12,000 FEET WITH NO
SIGNIFICANT WEATHER AND/OR OBSTRUCTIONS TO VISIBILITY.

MSZ001>002-007>008-010>013-018>021-025>028-034>036-020700-
NORTHWEST MISSISSIPPI

CITY           SKY/WX    TMP DP  RH WIND       PRES   REMARKS
CLARKSDALE     FAIR      75  73  94 CALM      30.02R
CLEVELAND      FAIR      76  74  96 S5        30.00R
GREENWOOD      FAIR      76  72  87 S6        30.01R
6HR MIN TEMP:  76; 6HR MAX TEMP:  86;

GREENVILLE     FAIR      76  73  91 S3        30.00R
6HR MIN TEMP:  76; 6HR MAX TEMP:  87;

GRENADA        FAIR      75  70  83 CALM      30.02R
OLIVE BRANCH   CLEAR     75  75 100 S8        30.01S
OXFORD         FAIR      75  70  83 SW3       30.04R
TUNICA         FAIR      73  70  88 S6        30.01R
$$

MSZ003>006-009-014>017-022>024-029>033-037>039-020700-
NORTHEAST MISSISSIPPI

CITY           SKY/WX    TMP DP  RH WIND       PRES   REMARKS
BELMONT        FAIR      77  70  80 S5        30.04R
COLUMBUS AFB   FAIR      76  72  87 SW6       30.03R
6HR MIN TEMP:  76; 6HR MAX TEMP:  87;

CORINTH        FAIR      73  70  88 CALM      30.02R
GOLDN TRIANGLE FAIR      75  70  83 SW5       30.04R
STARKVILLE     FAIR      73  70  88 CALM      30.03S
TUPELO         FAIR      77  70  79 SW3       30.02R
6HR MIN TEMP:  76; 6HR MAX TEMP:  87;

$$

MSZ040-058-020700-
CENTRAL MISSISSIPPI

CITY           SKY/WX    TMP DP  RH WIND       PRES   REMARKS
JACKSON INTL   FAIR      76  73  91 S7        30.03R
6HR MIN TEMP:  76; 6HR MAX TEMP:  79;

JACKSON HAWKNS FAIR      77  72  84 S9        30.03R
6HR MIN TEMP:  77; 6HR MAX TEMP:  80;

MERIDIAN KEY   FAIR      74  71  91 CALM      30.04S
6HR MIN TEMP:  74; 6HR MAX TEMP:  83;

MERIDIAN NAS   FAIR      75  71  87 CALM      30.04S
6HR MIN TEMP:  74; 6HR MAX TEMP:  85;

RAYMOND        FAIR      75  70  83 SE5       30.02S
VICKSBURG      FAIR      77  73  87 S8        30.00R
6HR MIN TEMP:  77; 6HR MAX TEMP:  82;

$$

MSZ059>079-020700-
SOUTH MISSISSIPPI

CITY           SKY/WX    TMP DP  RH WIND       PRES   REMARKS
BROOKHAVEN     FAIR      75  75 100 CALM      30.04F
HATTIESBURG    FAIR      79  75  87 CALM      30.04R
6HR MIN TEMP:  78; 6HR MAX TEMP:  85;

MCCOMB         FAIR      76  74  93 S5        30.02F
6HR MIN TEMP:  76; 6HR MAX TEMP:  78; 6HR PCP:  0.01;

NATCHEZ        FAIR      77  73  88 SE9       30.01R
6HR MIN TEMP:  77; 6HR MAX TEMP:  81;

PINE BELT      FAIR      75  72  88 CALM      30.05R
6HR MIN TEMP:  75; 6HR MAX TEMP:  81;

$$

MSZ080>082-020700-
COASTAL MISSISSIPPI

CITY           SKY/WX    TMP DP  RH WIND       PRES   REMARKS
BILOXI         MOCLDY    84  75  74 S12       30.02F HX  92
PASCAGOULA     FAIR      75  74  96 CALM      30.03S
6HR MIN TEMP:  73; 6HR MAX TEMP:  77; 6HR PCP: TRACE;

GULFPORT       FAIR      83  75  77 S8        30.02S HX  90
6HR MIN TEMP:  80; 6HR MAX TEMP:  84; 6HR PCP: TRACE;

$$



USA.gov is the U.S. government's official web portal to all federal, state and local government web resources and services.